Regional Weather Roundup
Issued by NWS

Home | Current Version | Previous Version | Text Only | Print | Product List | Glossary On
Versions: 1 2 3 4 5 6 7 8 9 10 11 12 13 14 15 16 17 18 19 20 21 22 23 24 25 26 27 28 29 30 31 32 33 34 35 36 37 38 39 40 41 42 43 44 45 46 47 48 49 50
000
ASCA42 TJSJ 311610
RWRPR
PUERTO RICO/U.S. VIRGIN ISLANDS HOURLY WEATHER ROUNDUP
NATIONAL WEATHER SERVICE SAN JUAN PR
1200 PM AST MON AUG 31 2015

PRZ001-004-311700-
PUERTO RICO

CITY           SKY/WX    TMP DP  RH WIND       PRES   REMARKS
SAN JUAN LMM   MOSUNNY   88  77  70 NE16      30.05F HX 100
PONCE          MOSUNNY   91  75  59 SE12      30.00S HX 102
AGUADILLA      SUNNY     86  77  74 E17       30.07F HX  97
$$

PRZ006-007-311700-
U.S. VIRGIN ISLANDS

CITY           SKY/WX    TMP DP  RH WIND       PRES   REMARKS
CHARLOTTE AMA  PTSUNNY   90  77  66 SE14      30.05S HX 102
CHRISTIANSTED  MOSUNNY   90  75  62 E18       30.05F HX 100
$$

HOURLY WEATHER ROUNDUP FOR THE NEWS MEDIA

CITY           SKY/WX    TMP DP  RH WIND       PRES   REMARKS
ORLANDO        CLOUDY    84  76  76 S6        30.08S HX  93
NEW YORK       CLOUDY    84  70  62 SW13      30.04F
NEWARK         CLOUDY    85  67  54 W5        30.04S
CHICAGO        SUNNY     78  67  68 CALM      30.08S
HARTFORD       MOSUNNY   85  68  56 W7        29.96F
BOSTON         MOSUNNY   86  63  45 W10       29.95F
DALLAS         MOSUNNY   86  67  52 CALM      30.04R
PHILADELPHIA   PTSUNNY   87  67  51 SW6       30.07S HX  90
LOS ANGELES    PTSUNNY   72  64  76 E5        29.91R
WASHINGTON DC  CLOUDY    82  62  50 VRB3      30.11S



USA.gov is the U.S. government's official web portal to all federal, state and local government web resources and services.